FW2617 Weather Reports


Display with metric or nautical units.
time (UTC)temp
F
wind
direction
speed
MPH
gust
MPH
rain 1hr
in
rain 24hr
in
rain mn
in
humidity
%
barometer
mb
20260903050004 81 107 0.0 2.0 0.00 0.00 0.00 71 1010.2
20260903045403 81 131 1.0 6.0 0.00 0.00 0.00 71 1010.2
20260903044524 81 129 2.0 6.0 0.00 0.00 0.00 71 1010.1
20260903043603 82 132 1.0 6.0 0.00 0.00 0.00 70 1010.1
20260903042703 82 134 2.0 6.0 0.00 0.00 0.00 70 1010.1
20260903041804 82 142 1.0 4.0 0.00 0.00 0.00 69 1010.1
20260903040904 83 145 1.0 4.0 0.00 0.00 0.00 69 1010.0
20260903040003 83 132 1.0 4.0 0.00 0.00 0.00 68 1009.9
20260903035403 83 133 2.0 5.0 0.00 0.00 0.00 68 1010.0
20260903034504 84 141 0.0 2.0 0.00 0.00 0.00 68 1010.0
20260903033603 84 142 1.0 5.0 0.00 0.00 0.00 68 1010.0
20260903032703 84 147 2.0 6.0 0.00 0.00 0.00 67 1009.9
20260903031803 85 156 3.0 7.0 0.00 0.00 0.00 66 1009.9
20260903030903 85 157 2.0 6.0 0.00 0.00 0.00 65 1009.9
20260903030004 86 146 2.0 6.0 0.00 0.00 0.00 65 1009.8
20260903025403 86 148 2.0 7.0 0.00 0.00 0.00 64 1009.6
20260903024503 86 144 2.0 7.0 0.00 0.00 0.00 63 1009.5
20260903023603 86 143 3.0 9.0 0.00 0.00 0.00 63 1009.3
20260903022703 87 145 3.0 6.0 0.00 0.00 0.00 62 1009.2
20260903021803 87 143 3.0 8.0 0.00 0.00 0.00 61 1009.0
20260903020903 88 135 2.0 11.0 0.00 0.00 0.00 60 1008.9
20260903020024 88 136 2.0 7.0 0.00 0.00 0.00 59 1008.8
20260903015403 88 133 2.0 8.0 0.00 0.00 0.00 59 1008.7
20260903014503 89 122 2.0 6.0 0.00 0.00 0.00 58 1008.5
20260903013603 89 135 2.0 6.0 0.00 0.00 0.00 58 1008.4
20260903012703 89 134 2.0 6.0 0.00 0.00 0.00 57 1008.5
20260903011803 89 138 2.0 5.0 0.00 0.00 0.00 56 1008.4
20260903010903 90 139 3.0 8.0 0.00 0.00 0.00 55 1008.3
20260903010003 90 138 3.0 9.0 0.00 0.00 0.00 54 1008.2
20260903005403 91 137 3.0 12.0 0.00 0.00 0.00 53 1008.1
20260903004504 91 125 3.0 10.0 0.00 0.00 0.00 51 1008.1
20260903003604 92 125 3.0 7.0 0.00 0.00 0.00 49 1008.2
20260903002704 93 119 2.0 6.0 0.00 0.00 0.00 47 1008.1
20260903001804 94 102 3.0 8.0 0.00 0.00 0.00 46 1008.0
20260903000904 94 100 3.0 6.0 0.00 0.00 0.00 45 1007.9
20260903000004 95 125 2.0 8.0 0.00 0.00 0.00 46 1008.0
20260902235404 95 121 3.0 8.0 0.00 0.00 0.00 45 1007.9
20260902234504 97 121 4.0 8.0 0.00 0.00 0.00 44 1007.9
20260902233604 99 103 3.0 9.0 0.00 0.00 0.00 41 1007.8
20260902232704 100 60 4.0 10.0 0.00 0.00 0.00 38 1007.7
20260902231805 101 61 2.0 8.0 0.00 0.00 0.00 37 1007.6
20260902230925 101 58 3.0 9.0 0.00 0.00 0.00 36 1007.7
20260902230004 101 49 3.0 9.0 0.00 0.00 0.00 35 1007.8
20260902225404 101 58 5.0 12.0 0.00 0.00 0.00 36 1007.7
20260902224504 101 51 5.0 14.0 0.00 0.00 0.00 34 1007.6
20260902223625 101 8 5.0 11.0 0.00 0.00 0.00 36 1007.7
20260902222705 101 37 5.0 11.0 0.00 0.00 0.00 36 1007.7
20260902221805 101 27 4.0 12.0 0.00 0.00 0.00 36 1007.8
20260902220925 101 33 5.0 16.0 0.00 0.00 0.00 36 1007.8
20260902220004 102 22 5.0 16.0 0.00 0.00 0.00 36 1007.8
20260902215405 102 55 4.0 12.0 0.00 0.00 0.00 36 1008.0
20260902214505 102 50 5.0 13.0 0.00 0.00 0.00 36 1008.0
20260902213604 102 39 5.0 13.0 0.00 0.00 0.00 36 1008.0
20260902212704 102 23 6.0 12.0 0.00 0.00 0.00 36 1008.2
20260902211804 102 49 5.0 12.0 0.00 0.00 0.00 36 1008.3
20260902210904 102 45 4.0 10.0 0.00 0.00 0.00 37 1008.2
20260902210004 102 40 5.0 12.0 0.00 0.00 0.00 36 1008.4
20260902205404 102 47 6.0 13.0 0.00 0.00 0.00 35 1008.5
20260902204505 103 52 3.0 10.0 0.00 0.00 0.00 35 1008.5
20260902203604 102 37 4.0 11.0 0.00 0.00 0.00 38 1008.6
20260902202704 102 33 6.0 14.0 0.00 0.00 0.00 38 1008.7
20260902201804 102 16 5.0 11.0 0.00 0.00 0.00 38 1008.9
20260902200904 101 13 5.0 11.0 0.00 0.00 0.00 38 1009.1
20260902200025 101 15 5.0 11.0 0.00 0.00 0.00 38 1009.1
20260902195404 101 25 5.0 11.0 0.00 0.00 0.00 39 1009.2
20260902194504 101 24 5.0 11.0 0.00 0.00 0.00 38 1009.4
20260902193604 101 18 6.0 13.0 0.00 0.00 0.00 38 1009.5
20260902192704 101 19 5.0 11.0 0.00 0.00 0.00 39 1009.7
20260902191805 101 51 4.0 13.0 0.00 0.00 0.00 39 1009.8
20260902190904 100 42 5.0 10.0 0.00 0.00 0.00 40 1010.0
20260902190004 101 48 5.0 10.0 0.00 0.00 0.00 39 1010.2
20260902185404 101 40 4.0 10.0 0.00 0.00 0.00 39 1010.2
20260902184504 100 37 4.0 11.0 0.00 0.00 0.00 40 1010.3
20260902183604 100 33 4.0 10.0 0.00 0.00 0.00 40 1010.5
20260902182705 99 50 4.0 10.0 0.00 0.00 0.00 41 1010.7
20260902181804 99 3 5.0 13.0 0.00 0.00 0.00 41 1010.8
20260902180904 99 41 3.0 12.0 0.00 0.00 0.00 42 1011.0
20260902180006 99 65 2.0 7.0 0.00 0.00 0.00 44 1011.2
20260902175404 98 47 3.0 11.0 0.00 0.00 0.00 44 1011.3
20260902174504 98 48 2.0 11.0 0.00 0.00 0.00 44 1011.4
20260902173604 97 8 3.0 8.0 0.00 0.00 0.00 45 1011.6
20260902172704 97 52 3.0 10.0 0.00 0.00 0.00 46 1011.8
20260902171804 96 53 3.0 8.0 0.00 0.00 0.00 47 1011.9
20260902170925 95 155 2.0 4.0 0.00 0.00 0.00 47 1012.1
20260902170004 95 42 2.0 8.0 0.00 0.00 0.00 48 1012.1
20260902165404 94 39 3.0 7.0 0.00 0.00 0.00 49 1012.3
20260902164504 94 54 1.0 7.0 0.00 0.00 0.00 50 1012.4
20260902163604 93 69 2.0 5.0 0.00 0.00 0.00 51 1012.4
20260902162704 92 80 2.0 5.0 0.00 0.00 0.00 53 1012.4
20260902161804 90 5 3.0 5.0 0.00 0.00 0.00 56 1012.5
20260902160904 90 40 2.0 5.0 0.00 0.00 0.00 56 1012.7
20260902160007 89 101 1.0 3.0 0.00 0.00 0.00 60 1012.7
20260902155404 88 66 1.0 3.0 0.00 0.00 0.00 62 1012.6
20260902154504 87 40 1.0 5.0 0.00 0.00 0.00 63 1012.7
20260902153605 86 148 1.0 4.0 0.00 0.00 0.00 64 1012.6
20260902152705 86 62 1.0 4.0 0.00 0.00 0.00 65 1012.6
20260902151825 85 41 1.0 5.0 0.00 0.00 0.00 66 1012.7
20260902150904 84 53 3.0 5.0 0.00 0.00 0.00 67 1012.6
20260902150025 84 60 2.0 5.0 0.00 0.00 0.00 70 1012.6
20260902145404 84 58 1.0 4.0 0.00 0.00 0.00 70 1012.7
20260902144504 83 112 2.0 4.0 0.00 0.00 0.00 71 1012.6
20260902143604 83 143 1.0 5.0 0.00 0.00 0.00 71 1012.7
20260902142705 82 153 1.0 5.0 0.00 0.00 0.00 72 1012.7
20260902141804 82 148 1.0 4.0 0.00 0.00 0.00 73 1012.7
20260902140904 82 152 1.0 4.0 0.00 0.00 0.00 74 1012.7
20260902140025 81 154 1.0 5.0 0.00 0.00 0.00 74 1012.5
20260902135404 81 152 1.0 5.0 0.00 0.00 0.00 75 1012.7
20260902134504 80 87 0.0 3.0 0.00 0.00 0.00 77 1012.5
20260902133604 80 135 1.0 5.0 0.00 0.00 0.00 77 1012.6
20260902132705 79 135 2.0 6.0 0.00 0.00 0.00 77 1012.7
20260902131804 78 132 1.0 4.0 0.00 0.00 0.00 79 1012.7
20260902130925 77 0 0.0 0.0 0.00 0.00 0.00 80 1012.6
20260902130025 77 0 0.0 0.0 0.00 0.00 0.00 80 1012.4
20260902125425 76 0 0.0 0.0 0.00 0.00 0.00 80 1012.3
20260902124504 76 0 0.0 0.0 0.00 0.00 0.00 80 1012.1
20260902123625 76 0 0.0 0.0 0.00 0.00 0.00 79 1012.1
20260902122725 76 0 0.0 0.0 0.00 0.00 0.00 80 1012.0
20260902121825 76 0 0.0 0.0 0.00 0.00 0.00 80 1012.0
20260902120905 76 0 0.0 0.0 0.00 0.00 0.00 80 1012.0
20260902120025 76 0 0.0 0.0 0.00 0.00 0.00 79 1012.0
20260902115404 76 0 0.0 0.0 0.00 0.00 0.00 79 1012.0
20260902114504 77 0 0.0 0.0 0.00 0.00 0.00 78 1012.1
20260902113604 77 0 0.0 0.0 0.00 0.00 0.00 77 1012.1
20260902112704 77 0 0.0 0.0 0.00 0.00 0.00 76 1012.0
20260902111804 77 0 0.0 0.0 0.00 0.00 0.00 77 1011.9
20260902110904 77 0 0.0 0.0 0.00 0.00 0.00 77 1011.9
20260902110007 77 0 0.0 0.0 0.00 0.00 0.00 77 1012.0
20260902105404 77 0 0.0 0.0 0.00 0.00 0.00 77 1012.0
20260902104504 77 0 0.0 0.0 0.00 0.00 0.00 77 1012.1
20260902103604 78 0 0.0 0.0 0.00 0.00 0.00 77 1012.1
20260902102704 78 0 0.0 0.0 0.00 0.00 0.00 76 1012.0
20260902101804 78 0 0.0 0.0 0.00 0.00 0.00 75 1011.9
20260902100904 79 0 0.0 0.0 0.00 0.00 0.00 75 1011.8
20260902100004 79 0 0.0 0.0 0.00 0.00 0.00 73 1011.8
20260902095404 79 0 0.0 0.0 0.00 0.00 0.00 73 1011.9
20260902094525 79 0 0.0 0.0 0.00 0.00 0.00 72 1011.9
20260902093604 80 0 0.0 0.0 0.00 0.00 0.00 71 1011.8
20260902092704 80 0 0.0 0.0 0.00 0.00 0.00 72 1011.8
20260902091804 80 0 0.0 0.0 0.00 0.00 0.00 72 1011.8
20260902090905 80 0 0.0 0.0 0.00 0.00 0.00 72 1011.9
20260902090005 80 0 0.0 0.0 0.00 0.00 0.00 71 1011.9
20260902085425 80 0 0.0 0.0 0.00 0.00 0.00 71 1011.9
20260902084504 81 0 0.0 0.0 0.00 0.00 0.00 71 1011.8
20260902083604 81 0 0.0 0.0 0.00 0.00 0.00 70 1011.9
20260902082725 81 0 0.0 0.0 0.00 0.00 0.00 70 1012.0
20260902081804 81 159 0.0 3.0 0.00 0.00 0.00 69 1011.9
20260902080904 82 151 2.0 5.0 0.00 0.00 0.00 69 1012.0
20260902080004 82 155 1.0 5.0 0.00 0.00 0.00 69 1012.1
20260902075404 82 156 1.0 4.0 0.00 0.00 0.00 68 1012.0
20260902074504 82 158 1.0 5.0 0.00 0.00 0.00 68 1012.0
20260902073604 82 166 2.0 5.0 0.00 0.00 0.00 68 1012.2
20260902072704 82 165 2.0 5.0 0.00 0.00 0.00 67 1012.1
20260902071825 83 160 2.0 5.0 0.00 0.00 0.00 67 1012.2
20260902070904 83 163 2.0 5.0 0.00 0.00 0.00 67 1012.1
20260902070006 83 160 2.0 7.0 0.00 0.00 0.00 67 1012.2
20260902065404 83 164 3.0 7.0 0.00 0.00 0.00 67 1012.2
20260902064504 83 161 3.0 7.0 0.00 0.00 0.00 67 1012.2
20260902063604 83 159 3.0 7.0 0.00 0.00 0.00 66 1012.2
20260902062704 83 164 2.0 6.0 0.00 0.00 0.00 66 1012.1
20260902061804 83 160 2.0 7.0 0.00 0.00 0.00 66 1012.1
20260902060904 83 163 3.0 7.0 0.00 0.00 0.00 66 1012.0
20260902060004 83 160 3.0 8.0 0.00 0.00 0.00 66 1012.0
20260902055404 83 161 3.0 8.0 0.00 0.00 0.00 66 1011.9
20260902054504 84 161 3.0 9.0 0.00 0.00 0.00 66 1011.8
20260902053604 84 158 3.0 8.0 0.00 0.00 0.00 66 1011.8
20260902052725 84 154 2.0 6.0 0.00 0.00 0.00 65 1011.7
20260902051804 84 158 2.0 7.0 0.00 0.00 0.00 65 1011.7
20260902050925 84 157 2.0 5.0 0.00 0.00 0.00 64 1011.7